Klawock, AK

9:18 AM AKDT on April 24, 2018 (GMT -0800)
Klawock

Weather History for PAKW - January, 2012

Change the Weather History Date:

Sunday, January 1, 2012

  Actual Average Record
Temperature  
Mean Temperature 41 °F -  
Max Temperature 46 °F 37 °F 48 °F (2013)
Min Temperature 36 °F 30 °F 15 °F (2009)
Degree Days  
Heating Degree Days 24    
Moisture  
Dew Point 37 °F    
Average Humidity 84    
Maximum Humidity 93    
Minimum Humidity 67    
Precipitation  
Precipitation 1.38 in - - ()
Sea Level Pressure  
Sea Level Pressure 29.39 in    
Wind  
Wind Speed 7 mph (South)    
Max Wind Speed 14 mph    
Max Gust Speed 34 mph    
Visibility 6 miles    
Events Rain    
Averages and records for this station are not official NWS values.
T = Trace of Precipitation, MM = Missing Value Source: NWS Daily Summary

Daily Weather History Graph

Daily Weather History Graph

Search for Another Location

Airport or City:

Astronomy

Jan. 01, 2012 Rise Set
Actual Time 8:20 AM AKST 3:30 PM AKST
Civil Twilight 7:34 AM AKST 4:17 PM AKST
Nautical Twilight 6:46 AM AKST 5:05 PM AKST
Astronomical Twilight 6:01 AM AKST 5:50 PM AKST
Moon 11:01 AM AKST (1/1) 12:40 AM AKST (1/1)
Length of Visible Light 8h 42m
Length of Day
7h 10m
First Quarter, 56% of the Moon is Illuminated
Jan 1
First Quarter
Jan 8
Full
Jan 16
Last Quarter
Jan 22
New
Jan 30
First Quarter

Hourly Weather History & Observations

Time (AKST) Temp. Windchill Dew Point Humidity Pressure Visibility Wind Dir Wind Speed Gust Speed Precip Events Conditions
12:53 AM 36.0 °F 29.6 °F 30.0 °F 79% 29.77 in 10.0 mi NNW 8.1 mph - 0.03 in   Overcast
1:53 AM 37.9 °F 32.7 °F 30.9 °F 76% 29.75 in 10.0 mi Variable 6.9 mph - 0.03 in   Overcast
2:53 AM 39.0 °F 36.8 °F 30.9 °F 73% 29.72 in 10.0 mi Variable 3.5 mph - 0.06 in   Overcast
3:53 AM 37.9 °F 32.7 °F 32.0 °F 79% 29.70 in 10.0 mi SSW 6.9 mph - 0.06 in   Overcast
4:53 AM 41.0 °F 37.1 °F 32.0 °F 70% 29.66 in 10.0 mi Variable 5.8 mph - 0.04 in   Overcast
5:53 AM 41.0 °F 34.7 °F 32.0 °F 70% 29.63 in 10.0 mi SE 10.4 mph 20.7 mph 0.01 in   Overcast
6:53 AM 41.0 °F 37.1 °F 32.0 °F 70% 29.61 in 10.0 mi Variable 5.8 mph - 0.00 in   Overcast
7:53 AM 41.0 °F 35.8 °F 30.9 °F 67% 29.56 in 10.0 mi East 8.1 mph - 0.00 in   Overcast
8:53 AM 39.9 °F 35.1 °F 32.0 °F 73% 29.49 in 10.0 mi Variable 6.9 mph 26.5 mph 0.00 in Rain Light Rain
9:53 AM 42.1 °F 40.2 °F 33.1 °F 70% 29.44 in 10.0 mi Variable 3.5 mph - 0.01 in Rain Light Rain
10:24 AM 39.2 °F 34.2 °F 33.8 °F 81% 29.42 in 7.0 mi Variable 6.9 mph - 0.02 in Rain Light Rain
10:53 AM 39.9 °F 33.9 °F 34.0 °F 79% 29.39 in 4.0 mi ESE 9.2 mph 32.2 mph 0.07 in Rain Light Rain
11:53 AM 37.9 °F 32.7 °F 35.1 °F 89% 29.33 in 6.0 mi Variable 6.9 mph 18.4 mph 0.05 in Rain Light Rain
12:53 PM 39.0 °F 34.0 °F 35.1 °F 86% 29.29 in 2.5 mi Variable 6.9 mph 21.9 mph 0.09 in Rain Rain
1:53 PM 37.9 °F 35.5 °F 36.0 °F 93% 29.26 in 2.5 mi Variable 3.5 mph 17.3 mph 0.16 in Rain Rain
2:08 PM 39.2 °F 35.0 °F 35.6 °F 87% 29.26 in 3.0 mi Variable 5.8 mph - 0.03 in Rain Rain
2:43 PM 39.2 °F 35.0 °F 37.4 °F 93% 29.26 in 3.0 mi Variable 5.8 mph - 0.12 in Rain Rain
2:53 PM 39.0 °F 35.7 °F 37.0 °F 93% 29.27 in 3.0 mi South 4.6 mph - 0.15 in Rain Rain
3:11 PM 39.2 °F - 37.4 °F 93% 29.27 in 4.0 mi Calm Calm - 0.05 in Rain Rain
3:53 PM 41.0 °F 38.0 °F 39.0 °F 93% 29.25 in 4.0 mi Variable 4.6 mph - 0.17 in Rain Rain
4:20 PM 42.8 °F 38.6 °F 41.0 °F 93% 29.25 in 5.0 mi South 6.9 mph - 0.06 in Rain Light Rain
4:39 PM 44.6 °F 40.7 °F 41.0 °F 87% 29.25 in 6.0 mi Variable 6.9 mph - 0.08 in Rain Light Rain
4:53 PM 44.1 °F 40.8 °F 42.1 °F 93% 29.25 in 5.0 mi Variable 5.8 mph - 0.11 in Rain Rain
5:53 PM 45.0 °F 41.8 °F 42.1 °F 90% 29.24 in 5.0 mi SSE 5.8 mph - 0.11 in Rain Rain
6:53 PM 45.0 °F 40.6 °F 42.1 °F 90% 29.23 in 7.0 mi SSE 8.1 mph - 0.05 in Rain Light Rain
7:38 PM 46.4 °F 41.1 °F 42.8 °F 87% 29.24 in 8.0 mi South 11.5 mph 20.7 mph 0.01 in Rain Light Rain
7:53 PM 46.0 °F 41.4 °F 42.1 °F 86% 29.24 in 8.0 mi SSE 9.2 mph 24.2 mph 0.02 in Rain Light Rain
8:53 PM 45.0 °F 40.1 °F 41.0 °F 86% 29.26 in 9.0 mi South 9.2 mph 17.3 mph 0.02 in Rain Light Rain
9:30 PM 44.6 °F 38.1 °F 41.0 °F 87% 29.29 in 5.0 mi SSW 13.8 mph 28.8 mph 0.04 in Rain Light Rain
9:44 PM 44.6 °F 38.8 °F 39.2 °F 81% 29.30 in 7.0 mi SSW 11.5 mph 34.5 mph 0.04 in Rain Light Rain
9:53 PM 44.1 °F 38.1 °F 39.9 °F 85% 29.31 in 5.0 mi SSW 11.5 mph 21.9 mph 0.05 in Rain Light Rain
10:04 PM 44.6 °F 38.8 °F 39.2 °F 81% 29.31 in 4.0 mi SSW 11.5 mph 21.9 mph 0.01 in Rain Light Rain
10:53 PM 44.1 °F 40.1 °F 39.9 °F 85% 29.35 in 9.0 mi SSW 6.9 mph 23.0 mph 0.02 in Rain Light Rain
11:43 PM 42.8 °F 37.5 °F 39.2 °F 87% 29.37 in 2.5 mi SSW 9.2 mph 28.8 mph 0.06 in Rain Rain
11:49 PM 42.8 °F 37.5 °F 41.0 °F 93% 29.38 in 3.0 mi SSW 9.2 mph 19.6 mph 0.07 in Rain Rain
11:50 PM 43.0 °F 36.8 °F 41.0 °F 93% 29.38 in 3.0 mi SW 11.5 mph 19.6 mph 0.07 in Rain Rain
11:53 PM 42.8 °F 36.2 °F 41.0 °F 93% 29.38 in 2.5 mi SSW 12.7 mph 19.6 mph 0.02 in Rain Heavy Rain